SCP
0 -0 -0 -0 -0 -0 0 0 0 0 0 0 0 -0 -0 -0 -0 -0 -0 0 0 0 0 0 0 0 0 0 0 -0 -0 -0 -0 0 0 0 0 0 0 0 0 0 0 0 0 0 0
0 -0 -0 -0 0 0 0 0 0 0 0 0 0 0 -0 -0 -0 -0 -0 -0 0 0 0 0 0 0 0 0 -0 -0 0 0 0 0 0 0 0 0 0 0 0 0 0 0 0 0 0
0 0 0 0 0 0 0 0 0 0 0 0 0 0 -0 -0 -0 -0 -0 -0 -0 0 0 0 0 0 0 0 0 0 0 0 0 0 0 0 0 0 0 0 0 0 0 0 0 0 0
0 0 0 0 0 0 0 0 0 0 0 0 -0 0 -0 -0 -0 -0 -0 -0 -0 0 0 0 0 0 0 0 0 -0 0 0 -0 0 0 0 0 0 0 0 0 0 0 0 0 0 0
0 0 0 0 0 0 0 0 0 0 0 0 -0 -0 -0 -0 -0 -0 -0 -0 -0 0 -0 0 0 0 0 0 0 -0 0 -0 0 0 0 0 0 0 0 0 0 0 0 0 0 0 0
0 0 0 0 0 0 0 0 0 0 0 0 -0 -0 -0 -0 -0 -0 -0 -0 0 0 0 0 0 0 0 0 -0 -0 -0 0 0 0 0 0 0 0 0 0 0 0 0 0 0 0 0
0 0 0 0 0 0 0 0 0 0 0 0 0 -0 -0 -0 -0 -0 -0 0 0 0 0 0 0 0 0 0 -0 -0 -0 0 0 0 0 0 0 0 0 0 0 0 0 0 0 0 0
0 0 0 0 0 0 0 0 0 0 0 0 0 -0 -0 -0 -0 -0 0 0 0 0 0 0 -0 -0 0 0 0 -0 0 0 0 0 0 0 0 0 0 0 0 0 0 0 0 0 0
0 0 0 0 0 0 0 0 0 0 0 0 0 0 -0 -0 -0 0 0 0 0 0 -0 -0 -0 -0 -0 0 0 -0 0 0 0 0 0 0 0 0 0 0 0 0 0 0 0 -0 0
0 0 0 0 0 0 0 0 0 0 0 0 0 0 0 -0 0 0 0 0 -0 0 0 -0 -0 -0 -0 -0 -0 -0 -0 -0 0 0 0 0 0 0 0 0 0 0 0 0 0 0 -0
0 0 0 0 0 0 0 0 0 0 0 0 0 0 0 0 0 0 0 0 0 -0 0 0 -0 -0 0 0 -0 0 0 0 0 0 0 0 0 0 0 0 0 0 0 0 0 0 0
0 0 0 0 0 0 0 0 0 0 0 0 0 0 -0 0 0 0 0 0 -0 0 0 0 0 0 0 0 0 0 0 0 0 0 0 0 0 0 0 0 0 0 0 0 0 0 0
-0 0 0 0 0 0 0 0 0 0 0 0 0 -0 0 0 0 -0 -0 -0 0 0 0 0 0 0 0 0 0 0 0 0 0 0 0 0 0 0 0 0 0 0 0 0 -0 0 0
-0 -0 0 0 0 0 0 0 0 0 0 0 0 -0 0 0 0 0 -0 0 0 0 0 0 0 0 0 0 0 0 0 0 0 0 0 0 0 0 0 0 0 0 0 0 -0 -0 0
-0 -0 -0 -0 0 0 0 0 0 0 0 0 -0 0 0 0 0 0 0 0 0 0 0 0 0 0 0 0 0 0 0 0 0 0 0 0 0 0 0 0 0 0 0 0 0 0 0
-0 -0 -0 -0 -0 0 0 0 0 0 0 0 0 0 0 0 0 0 0 0 0 0 0 0 0 0 0 0 0 0 0 0 0 0 0 0 0 0 0 0 0 0 0 0 0 0 0
-0 0 0 0 0 -0 0 0 0 -0 -0 -0 0 0 0 0 0 0 0 0 0 0 0 0 0 0 0 0 0 0 0 0 0 0 0 0 0 0 0 0 0 0 0 0 0 0 0
0 0 0 0 0 0 0 0 0 0 0 0 0 0 0 0 0 0 0 0 0 0 0 0 0 0 0 0 0 0 0 0 0 0 -0 -0 0 -0 0 0 0 0 0 0 0 0 0
0 0 0 0 0 0 -0 -0 0 0 0 0 0 0 0 0 0 0 0 0 0 0 0 0 0 0 0 0 0 0 0 0 0 0 0 0 0 -0 0 0 0 0 0 0 0 0 0
0 0 0 0 0 0 0 -0 -0 -0 0 0 0 0 0 0 0 0 0 0 0 0 0 0 0 0 0 0 0 0 0 0 0 0 0 0 0 0 0 0 0 -0 0 0 0 0 0
0 0 0 0 0 -0 0 0 -0 -0 0 0 0 0 0 0 0 0 0 0 0 0 0 0 0 0 0 0 0 0 0 0 0 0 0 0 0 0 0 0 0 0 -0 0 0 0 0
0 0 0 0 0 0 -0 0 0 0 0 0 0 0 0 0 0 0 0 0 0 0 0 0 0 0 0 0 0 0 0 0 0 0 0 0 0 0 0 0 0 -0 -0 0 0 0 0
0 0 0 0 0 0 0 0 0 0 0 0 0 0 0 0 0 0 0 0 0 0 0 0 0 0 0 0 0 0 0 0 0 0 0 0 0 0 -0 0 0 -0 0 0 0 0 0
0 0 0 0 0 0 0 0 0 0 0 0 0 0 0 0 0 0 0 0 0 0 0 0 0 0 0 0 0 0 0 0 0 0 0 0 0 0 0 0 0 0 0 0 0 0 0
0 0 0 0 0 0 0 0 0 0 0 0 0 0 0 0 0 0 0 0 0 0 0 0 0 0 0 0 0 0 0 0 0 0 0 0 0 0 0 0 0 0 0 0 0 0 0
0 0 0 0 0 0 0 0 0 0 0 0 0 0 0 0 0 0 0 0 0 0 0 0 0 0 0 0 0 0 0 0 0 0 0 0 0 0 0 0 0 0 0 0 0 0 0
0 0 0 0 0 0 0 0 0 0 0 0 0 0 0 0 0 0 0 0 0 0 0 0 0 0 0 0 0 0 0 0 0 0 0 0 0 0 0 0 0 0 0 0 0 0 0
0 0 0 0 0 0 0 0 0 0 0 0 0 0 0 0 0 0 0 0 0 0 0 0 0 0 0 0 0 0 0 0 0 0 0 0 0 0 0 0 0 0 0 0 0 0 0
0 0 0 0 0 0 0 0 0 0 0 0 0 0 0 0 0 0 0 0 0 0 0 0 0 0 0 0 0 0 0 0 0 0 0 0 0 0 0 0 0 0 0 -0 0 0 0
Wind_Speed_500mb
42 43 44 44 44 46 46 47 48 49 49 47 43 40 40 41 39 35 32 31 26 22 21 24 21 15 10 5 4 4 12 12 9 5 8 3 3 4 6 5 6 7 7 14 15 20 29
40 43 44 45 45 45 47 48 50 52 55 53 45 41 41 42 40 35 31 27 25 20 19 20 15 9 3 4 11 13 7 4 2 3 5 6 6 7 0 3 1 10 8 18 7 14 17
40 42 43 44 45 48 48 48 51 51 53 56 48 39 40 42 39 33 26 21 19 15 14 16 8 8 10 10 10 4 4 8 9 11 5 1 3 5 3 10 10 10 12 10 8 12 14
41 43 45 47 47 49 48 48 50 53 56 57 53 40 40 40 36 26 20 16 11 8 10 6 8 8 9 15 10 6 5 6 7 8 16 10 11 9 2 8 14 8 9 5 9 7 13
43 44 47 49 50 51 50 47 52 55 55 53 51 39 39 36 29 23 21 14 6 3 4 7 4 6 6 10 8 7 9 7 8 4 8 14 11 4 5 7 9 11 1 3 13 10 8
46 48 48 49 50 51 51 52 54 56 56 53 49 37 32 28 22 27 18 25 15 11 11 7 6 8 6 8 13 9 12 7 8 11 10 2 6 5 6 8 4 6 3 7 8 12 10
48 50 51 51 50 50 50 52 54 56 57 52 48 35 25 18 18 22 36 13 14 4 32 16 19 12 9 8 10 4 10 4 3 4 3 3 7 7 18 18 12 4 7 11 9 12 10
50 51 51 50 51 51 51 51 56 57 56 53 48 28 17 9 12 14 19 27 17 13 14 30 28 30 27 16 15 16 17 7 4 4 4 10 3 9 9 9 9 8 7 4 6 8 13
53 52 50 47 48 53 50 54 58 57 52 51 43 23 11 3 6 21 21 24 14 21 4 16 3 11 14 15 9 11 16 6 3 1 3 6 12 8 6 8 7 4 5 5 8 10 10
56 53 49 45 50 51 52 58 58 55 51 48 35 19 7 4 7 9 12 13 18 16 7 5 3 4 9 12 7 17 17 8 1 4 5 8 6 3 7 3 3 6 2 4 10 15 7
57 55 50 49 52 51 54 59 59 53 49 42 26 14 6 8 2 9 21 20 7 5 9 5 1 1 4 10 8 9 23 17 11 11 7 12 7 11 6 5 3 9 5 6 6 10 5
55 54 53 54 55 55 58 60 57 51 45 32 17 13 5 2 7 19 17 8 1 9 6 7 6 8 9 10 16 6 19 14 3 6 3 15 4 5 4 1 1 4 5 8 7 2 3
55 56 55 56 56 57 60 60 56 50 43 19 11 11 8 7 15 20 17 1 8 9 9 10 7 11 4 7 8 10 11 6 1 2 5 6 4 5 7 4 10 12 12 8 9 5 9
55 55 54 55 57 58 60 63 58 50 40 17 8 11 17 13 20 23 16 9 13 6 7 4 8 12 8 13 9 13 5 3 12 8 5 5 10 7 4 7 8 8 14 9 9 6 17
50 53 54 55 55 58 61 64 58 53 40 15 9 18 16 25 22 26 8 11 6 5 3 9 11 8 9 9 5 13 9 3 5 7 5 1 8 6 4 4 9 5 5 9 6 3 5
49 50 53 56 57 57 59 62 59 53 43 14 11 10 24 24 24 20 10 2 6 4 4 3 3 2 5 8 9 11 2 3 7 2 5 6 10 8 1 5 7 4 4 2 4 6 10
48 48 49 52 56 57 57 57 59 53 42 18 14 4 20 24 22 10 6 7 7 18 9 7 6 7 7 3 4 3 9 5 5 5 7 4 8 8 4 8 11 4 2 6 5 7 8
50 47 47 51 53 55 55 56 55 53 49 29 9 4 10 21 10 4 1 5 14 8 7 8 6 7 8 6 7 7 12 10 11 10 8 7 6 7 15 15 13 11 12 9 7 11 8
46 50 48 48 51 53 54 52 52 53 49 42 18 8 6 10 4 5 12 9 7 4 8 4 6 7 5 6 6 9 7 5 13 13 11 10 1 7 15 6 9 3 8 8 4 1 24
43 45 50 51 53 53 52 52 47 44 42 34 13 7 7 8 7 6 8 9 9 18 4 6 6 3 8 5 9 10 6 7 7 8 13 16 9 13 12 14 5 18 21 22 22 9 16
45 44 48 51 50 52 54 52 49 41 36 26 14 3 3 7 4 4 6 6 7 9 13 15 5 10 3 7 6 11 6 8 10 22 8 14 14 12 20 28 25 32 41 40 32 36 25
43 44 45 50 54 54 54 53 50 46 35 16 13 11 8 11 15 9 4 3 5 6 7 5 1 12 9 11 13 14 12 9 14 10 8 3 8 10 15 20 29 38 38 38 41 37 36
39 43 43 45 50 54 51 50 51 48 42 12 13 12 10 6 6 3 5 4 8 16 14 7 7 6 8 15 23 42 45 41 28 14 12 13 9 4 31 19 20 23 35 19 9 11 10
37 40 42 43 45 51 51 47 45 46 41 28 14 13 8 8 3 6 6 20 19 11 13 23 23 8 11 46 57 45 54 48 40 35 31 15 12 8 14 4 14 9 5 4 9 17 20
37 37 40 42 42 46 50 48 42 38 36 28 18 6 5 7 11 23 14 7 25 22 12 24 17 29 36 32 6 11 9 4 6 5 9 24 10 6 5 6 14 15 4 8 8 19 26
36 35 37 39 40 42 45 48 44 38 33 27 14 6 6 10 9 14 6 13 6 7 11 12 34 29 23 1 3 4 6 6 5 5 15 14 12 6 3 4 10 11 5 7 8 18 13
37 35 36 38 38 40 44 46 45 40 34 27 11 16 8 12 25 15 11 7 6 5 7 17 16 14 11 4 2 5 7 7 5 4 7 5 4 14 9 8 14 9 11 12 2 15 8
37 35 35 37 38 40 42 45 45 38 36 26 17 12 16 14 54 36 24 20 19 19 6 9 17 5 8 7 3 4 5 6 7 6 7 10 8 7 7 9 13 10 9 10 17 34 42
37 37 35 37 37 40 43 43 47 39 32 27 26 22 33 27 50 73 68 68 55 53 27 9 9 14 8 4 5 5 5 6 6 7 4 6 6 4 12 10 14 23 33 51 61 56 65
Wind_Direction_500mb
21 21 18 15 13 12 10 6 1 356 349 340 335 334 332 332 326 317 308 303 301 307 314 326 332 322 324 298 304 73 126 92 89 65 41 30 180 207 199 229 295 201 273 296 320 301 284
18 18 16 13 10 6 4 0 358 357 355 349 339 334 333 333 328 321 313 305 298 298 311 329 332 327 317 308 108 89 106 69 47 9 20 56 40 329 297 305 168 331 300 298 295 276 248
13 9 6 3 358 356 355 354 354 352 351 351 344 335 334 336 333 325 323 319 302 291 310 325 321 318 258 197 167 180 285 314 317 269 54 65 5 344 20 323 323 318 337 341 217 247 233
1 357 356 353 353 353 351 350 349 349 348 348 348 339 337 339 341 346 348 341 316 292 314 314 312 317 254 159 208 220 215 282 8 222 243 287 307 305 293 320 358 14 43 16 278 262 259
354 353 353 351 352 351 351 352 350 349 347 345 346 340 339 347 356 18 8 350 335 310 327 351 276 312 266 184 167 175 271 217 312 264 264 284 290 197 15 66 9 14 193 258 309 320 281
353 353 354 353 353 352 353 352 351 350 349 346 345 341 342 355 17 32 31 36 63 90 44 339 255 326 58 330 192 241 181 245 303 322 310 184 140 101 46 76 236 248 251 249 261 299 317
358 356 356 354 354 353 354 354 352 349 348 347 345 342 344 3 19 41 49 31 23 33 322 263 284 280 311 12 271 208 187 217 32 65 60 39 92 207 239 207 224 237 239 247 269 285 312
357 355 355 355 354 353 354 353 350 348 347 346 344 343 343 345 16 41 51 35 35 341 310 306 269 263 268 279 295 268 211 232 69 306 10 24 208 212 255 208 196 185 208 252 272 320 327
356 354 354 356 0 356 354 351 348 348 348 347 345 346 348 277 47 74 61 38 13 348 343 303 241 240 237 221 238 244 202 193 135 284 111 157 246 303 11 338 29 341 111 334 271 302 266
360 358 357 358 358 353 350 348 348 349 348 349 347 350 21 175 117 23 38 358 347 356 68 295 237 256 206 216 276 238 231 202 76 227 290 256 266 70 356 303 93 338 77 324 330 350 305
5 5 2 360 356 354 349 346 347 350 350 351 354 1 74 123 120 354 329 319 313 311 66 176 301 184 246 206 300 241 232 200 195 199 103 257 291 328 328 255 93 241 312 289 276 263 278
3 3 359 356 354 352 350 349 351 353 354 356 13 47 96 331 301 317 320 326 340 46 63 6 47 0 351 267 250 267 194 226 310 156 221 245 230 189 200 281 265 346 337 353 358 44 281
359 0 0 358 357 357 356 359 1 356 358 12 69 69 60 7 347 337 331 10 38 79 324 1 315 325 301 285 323 186 190 64 260 317 289 331 355 11 90 353 356 62 50 339 338 357 242
1 4 9 10 6 4 3 4 6 4 1 12 79 34 21 353 360 357 353 57 66 92 338 357 315 326 44 6 5 1 56 87 32 90 76 124 317 175 163 173 216 252 161 162 259 223 280
5 8 8 9 8 5 4 5 11 9 5 29 71 17 11 20 8 354 354 53 196 285 288 313 321 38 342 340 46 30 19 105 70 47 119 30 260 274 320 128 132 264 200 213 219 312 278
4 10 10 9 8 6 4 3 7 10 6 6 358 0 19 10 354 350 69 232 209 264 177 24 24 25 323 312 24 24 320 349 129 81 135 199 289 248 295 27 357 163 211 312 14 266 248
1 5 7 8 6 6 4 2 1 9 10 352 348 31 3 0 351 17 108 245 290 311 202 176 236 265 251 288 275 243 251 334 134 141 104 155 175 277 29 193 212 353 276 82 131 172 216
359 359 2 5 4 3 2 2 359 1 7 9 350 34 339 356 41 27 292 267 308 308 307 229 186 212 226 242 269 253 232 192 161 167 168 203 170 266 240 278 251 172 206 151 133 266 235
0 358 359 358 0 1 1 1 359 354 358 359 341 303 354 342 91 320 308 293 262 302 305 272 255 213 204 233 278 219 239 219 195 171 175 185 248 309 329 16 356 115 206 201 205 265 250
355 358 354 355 359 360 1 359 1 353 353 356 351 360 337 58 86 99 354 282 320 317 260 14 245 39 27 270 236 276 248 257 323 261 294 175 173 192 227 248 211 283 263 259 255 246 261
343 351 353 354 355 357 359 0 2 3 354 355 3 20 5 302 334 344 238 274 292 350 334 335 317 11 222 263 275 248 249 310 266 286 283 151 205 209 243 257 268 267 272 275 260 254 245
341 341 349 352 352 354 357 0 3 6 7 357 8 357 335 291 305 329 335 84 294 346 257 264 36 289 295 233 222 273 269 207 226 274 186 162 250 197 258 247 253 269 270 264 263 261 255
337 339 343 351 351 351 355 359 1 4 11 18 359 329 311 289 322 40 231 36 308 331 289 210 285 299 266 251 292 284 268 251 244 213 195 174 172 160 273 284 294 272 247 231 230 224 221
331 336 337 344 351 349 350 356 0 0 4 3 344 334 326 284 277 235 296 321 278 277 249 286 301 233 275 311 304 286 261 253 244 241 221 208 168 170 279 280 240 279 336 308 249 268 266
323 332 334 338 346 349 348 348 355 359 354 347 328 284 299 284 258 289 253 245 305 295 264 276 286 322 313 309 295 326 322 283 73 102 260 202 149 227 225 211 300 300 213 199 203 281 275
316 325 330 332 338 344 347 344 344 352 352 346 329 303 248 295 255 256 283 258 259 303 319 276 311 323 317 283 285 267 295 294 256 119 47 114 142 193 169 230 247 237 235 65 72 280 283
308 317 323 326 333 338 342 341 338 342 349 348 327 283 279 262 277 274 234 233 225 236 253 291 336 322 356 331 270 240 258 294 306 286 165 157 202 222 226 248 279 253 132 112 216 264 276
301 308 316 321 328 331 336 339 333 336 340 350 334 301 327 266 285 277 259 242 234 230 194 322 347 330 349 16 263 309 289 348 305 313 292 197 189 209 201 221 264 144 99 189 238 285 298
295 301 311 317 324 327 330 336 328 329 335 327 316 302 305 279 273 291 285 276 276 256 253 227 248 306 293 38 5 338 318 313 307 295 277 269 194 218 209 222 236 210 247 279 287 277 294
Wind_Speed_850mb
42 43 44 44 44 46 46 47 48 49 49 47 43 40 40 41 39 35 32 31 26 22 21 24 21 15 10 5 4 4 12 12 9 5 8 3 3 4 6 5 6 7 7 14 15 20 29
40 43 44 45 45 45 47 48 50 52 55 53 45 41 41 42 40 35 31 27 25 20 19 20 15 9 3 4 11 13 7 4 2 3 5 6 6 7 0 3 1 10 8 18 7 14 17
40 42 43 44 45 48 48 48 51 51 53 56 48 39 40 42 39 33 26 21 19 15 14 16 8 8 10 10 10 4 4 8 9 11 5 1 3 5 3 10 10 10 12 10 8 12 14
41 43 45 47 47 49 48 48 50 53 56 57 53 40 40 40 36 26 20 16 11 8 10 6 8 8 9 15 10 6 5 6 7 8 16 10 11 9 2 8 14 8 9 5 9 7 13
43 44 47 49 50 51 50 47 52 55 55 53 51 39 39 36 29 23 21 14 6 3 4 7 4 6 6 10 8 7 9 7 8 4 8 14 11 4 5 7 9 11 1 3 13 10 8
46 48 48 49 50 51 51 52 54 56 56 53 49 37 32 28 22 27 18 25 15 11 11 7 6 8 6 8 13 9 12 7 8 11 10 2 6 5 6 8 4 6 3 7 8 12 10
48 50 51 51 50 50 50 52 54 56 57 52 48 35 25 18 18 22 36 13 14 4 32 16 19 12 9 8 10 4 10 4 3 4 3 3 7 7 18 18 12 4 7 11 9 12 10
50 51 51 50 51 51 51 51 56 57 56 53 48 28 17 9 12 14 19 27 17 13 14 30 28 30 27 16 15 16 17 7 4 4 4 10 3 9 9 9 9 8 7 4 6 8 13
53 52 50 47 48 53 50 54 58 57 52 51 43 23 11 3 6 21 21 24 14 21 4 16 3 11 14 15 9 11 16 6 3 1 3 6 12 8 6 8 7 4 5 5 8 10 10
56 53 49 45 50 51 52 58 58 55 51 48 35 19 7 4 7 9 12 13 18 16 7 5 3 4 9 12 7 17 17 8 1 4 5 8 6 3 7 3 3 6 2 4 10 15 7
57 55 50 49 52 51 54 59 59 53 49 42 26 14 6 8 2 9 21 20 7 5 9 5 1 1 4 10 8 9 23 17 11 11 7 12 7 11 6 5 3 9 5 6 6 10 5
55 54 53 54 55 55 58 60 57 51 45 32 17 13 5 2 7 19 17 8 1 9 6 7 6 8 9 10 16 6 19 14 3 6 3 15 4 5 4 1 1 4 5 8 7 2 3
55 56 55 56 56 57 60 60 56 50 43 19 11 11 8 7 15 20 17 1 8 9 9 10 7 11 4 7 8 10 11 6 1 2 5 6 4 5 7 4 10 12 12 8 9 5 9
55 55 54 55 57 58 60 63 58 50 40 17 8 11 17 13 20 23 16 9 13 6 7 4 8 12 8 13 9 13 5 3 12 8 5 5 10 7 4 7 8 8 14 9 9 6 17
50 53 54 55 55 58 61 64 58 53 40 15 9 18 16 25 22 26 8 11 6 5 3 9 11 8 9 9 5 13 9 3 5 7 5 1 8 6 4 4 9 5 5 9 6 3 5
49 50 53 56 57 57 59 62 59 53 43 14 11 10 24 24 24 20 10 2 6 4 4 3 3 2 5 8 9 11 2 3 7 2 5 6 10 8 1 5 7 4 4 2 4 6 10
48 48 49 52 56 57 57 57 59 53 42 18 14 4 20 24 22 10 6 7 7 18 9 7 6 7 7 3 4 3 9 5 5 5 7 4 8 8 4 8 11 4 2 6 5 7 8
50 47 47 51 53 55 55 56 55 53 49 29 9 4 10 21 10 4 1 5 14 8 7 8 6 7 8 6 7 7 12 10 11 10 8 7 6 7 15 15 13 11 12 9 7 11 8
46 50 48 48 51 53 54 52 52 53 49 42 18 8 6 10 4 5 12 9 7 4 8 4 6 7 5 6 6 9 7 5 13 13 11 10 1 7 15 6 9 3 8 8 4 1 24
43 45 50 51 53 53 52 52 47 44 42 34 13 7 7 8 7 6 8 9 9 18 4 6 6 3 8 5 9 10 6 7 7 8 13 16 9 13 12 14 5 18 21 22 22 9 16
45 44 48 51 50 52 54 52 49 41 36 26 14 3 3 7 4 4 6 6 7 9 13 15 5 10 3 7 6 11 6 8 10 22 8 14 14 12 20 28 25 32 41 40 32 36 25
43 44 45 50 54 54 54 53 50 46 35 16 13 11 8 11 15 9 4 3 5 6 7 5 1 12 9 11 13 14 12 9 14 10 8 3 8 10 15 20 29 38 38 38 41 37 36
39 43 43 45 50 54 51 50 51 48 42 12 13 12 10 6 6 3 5 4 8 16 14 7 7 6 8 15 23 42 45 41 28 14 12 13 9 4 31 19 20 23 35 19 9 11 10
37 40 42 43 45 51 51 47 45 46 41 28 14 13 8 8 3 6 6 20 19 11 13 23 23 8 11 46 57 45 54 48 40 35 31 15 12 8 14 4 14 9 5 4 9 17 20
37 37 40 42 42 46 50 48 42 38 36 28 18 6 5 7 11 23 14 7 25 22 12 24 17 29 36 32 6 11 9 4 6 5 9 24 10 6 5 6 14 15 4 8 8 19 26
36 35 37 39 40 42 45 48 44 38 33 27 14 6 6 10 9 14 6 13 6 7 11 12 34 29 23 1 3 4 6 6 5 5 15 14 12 6 3 4 10 11 5 7 8 18 13
37 35 36 38 38 40 44 46 45 40 34 27 11 16 8 12 25 15 11 7 6 5 7 17 16 14 11 4 2 5 7 7 5 4 7 5 4 14 9 8 14 9 11 12 2 15 8
37 35 35 37 38 40 42 45 45 38 36 26 17 12 16 14 54 36 24 20 19 19 6 9 17 5 8 7 3 4 5 6 7 6 7 10 8 7 7 9 13 10 9 10 17 34 42
37 37 35 37 37 40 43 43 47 39 32 27 26 22 33 27 50 73 68 68 55 53 27 9 9 14 8 4 5 5 5 6 6 7 4 6 6 4 12 10 14 23 33 51 61 56 65
Wind_Direction_850mb
21 21 18 15 13 12 10 6 1 356 349 340 335 334 332 332 326 317 308 303 301 307 314 326 332 322 324 298 304 73 126 92 89 65 41 30 180 207 199 229 295 201 273 296 320 301 284
18 18 16 13 10 6 4 0 358 357 355 349 339 334 333 333 328 321 313 305 298 298 311 329 332 327 317 308 108 89 106 69 47 9 20 56 40 329 297 305 168 331 300 298 295 276 248
13 9 6 3 358 356 355 354 354 352 351 351 344 335 334 336 333 325 323 319 302 291 310 325 321 318 258 197 167 180 285 314 317 269 54 65 5 344 20 323 323 318 337 341 217 247 233
1 357 356 353 353 353 351 350 349 349 348 348 348 339 337 339 341 346 348 341 316 292 314 314 312 317 254 159 208 220 215 282 8 222 243 287 307 305 293 320 358 14 43 16 278 262 259
354 353 353 351 352 351 351 352 350 349 347 345 346 340 339 347 356 18 8 350 335 310 327 351 276 312 266 184 167 175 271 217 312 264 264 284 290 197 15 66 9 14 193 258 309 320 281
353 353 354 353 353 352 353 352 351 350 349 346 345 341 342 355 17 32 31 36 63 90 44 339 255 326 58 330 192 241 181 245 303 322 310 184 140 101 46 76 236 248 251 249 261 299 317
358 356 356 354 354 353 354 354 352 349 348 347 345 342 344 3 19 41 49 31 23 33 322 263 284 280 311 12 271 208 187 217 32 65 60 39 92 207 239 207 224 237 239 247 269 285 312
357 355 355 355 354 353 354 353 350 348 347 346 344 343 343 345 16 41 51 35 35 341 310 306 269 263 268 279 295 268 211 232 69 306 10 24 208 212 255 208 196 185 208 252 272 320 327
356 354 354 356 0 356 354 351 348 348 348 347 345 346 348 277 47 74 61 38 13 348 343 303 241 240 237 221 238 244 202 193 135 284 111 157 246 303 11 338 29 341 111 334 271 302 266
360 358 357 358 358 353 350 348 348 349 348 349 347 350 21 175 117 23 38 358 347 356 68 295 237 256 206 216 276 238 231 202 76 227 290 256 266 70 356 303 93 338 77 324 330 350 305
5 5 2 360 356 354 349 346 347 350 350 351 354 1 74 123 120 354 329 319 313 311 66 176 301 184 246 206 300 241 232 200 195 199 103 257 291 328 328 255 93 241 312 289 276 263 278
3 3 359 356 354 352 350 349 351 353 354 356 13 47 96 331 301 317 320 326 340 46 63 6 47 0 351 267 250 267 194 226 310 156 221 245 230 189 200 281 265 346 337 353 358 44 281
359 0 0 358 357 357 356 359 1 356 358 12 69 69 60 7 347 337 331 10 38 79 324 1 315 325 301 285 323 186 190 64 260 317 289 331 355 11 90 353 356 62 50 339 338 357 242
1 4 9 10 6 4 3 4 6 4 1 12 79 34 21 353 360 357 353 57 66 92 338 357 315 326 44 6 5 1 56 87 32 90 76 124 317 175 163 173 216 252 161 162 259 223 280
5 8 8 9 8 5 4 5 11 9 5 29 71 17 11 20 8 354 354 53 196 285 288 313 321 38 342 340 46 30 19 105 70 47 119 30 260 274 320 128 132 264 200 213 219 312 278
4 10 10 9 8 6 4 3 7 10 6 6 358 0 19 10 354 350 69 232 209 264 177 24 24 25 323 312 24 24 320 349 129 81 135 199 289 248 295 27 357 163 211 312 14 266 248
1 5 7 8 6 6 4 2 1 9 10 352 348 31 3 0 351 17 108 245 290 311 202 176 236 265 251 288 275 243 251 334 134 141 104 155 175 277 29 193 212 353 276 82 131 172 216
359 359 2 5 4 3 2 2 359 1 7 9 350 34 339 356 41 27 292 267 308 308 307 229 186 212 226 242 269 253 232 192 161 167 168 203 170 266 240 278 251 172 206 151 133 266 235
0 358 359 358 0 1 1 1 359 354 358 359 341 303 354 342 91 320 308 293 262 302 305 272 255 213 204 233 278 219 239 219 195 171 175 185 248 309 329 16 356 115 206 201 205 265 250
355 358 354 355 359 360 1 359 1 353 353 356 351 360 337 58 86 99 354 282 320 317 260 14 245 39 27 270 236 276 248 257 323 261 294 175 173 192 227 248 211 283 263 259 255 246 261
343 351 353 354 355 357 359 0 2 3 354 355 3 20 5 302 334 344 238 274 292 350 334 335 317 11 222 263 275 248 249 310 266 286 283 151 205 209 243 257 268 267 272 275 260 254 245
341 341 349 352 352 354 357 0 3 6 7 357 8 357 335 291 305 329 335 84 294 346 257 264 36 289 295 233 222 273 269 207 226 274 186 162 250 197 258 247 253 269 270 264 263 261 255
337 339 343 351 351 351 355 359 1 4 11 18 359 329 311 289 322 40 231 36 308 331 289 210 285 299 266 251 292 284 268 251 244 213 195 174 172 160 273 284 294 272 247 231 230 224 221
331 336 337 344 351 349 350 356 0 0 4 3 344 334 326 284 277 235 296 321 278 277 249 286 301 233 275 311 304 286 261 253 244 241 221 208 168 170 279 280 240 279 336 308 249 268 266
323 332 334 338 346 349 348 348 355 359 354 347 328 284 299 284 258 289 253 245 305 295 264 276 286 322 313 309 295 326 322 283 73 102 260 202 149 227 225 211 300 300 213 199 203 281 275
316 325 330 332 338 344 347 344 344 352 352 346 329 303 248 295 255 256 283 258 259 303 319 276 311 323 317 283 285 267 295 294 256 119 47 114 142 193 169 230 247 237 235 65 72 280 283
308 317 323 326 333 338 342 341 338 342 349 348 327 283 279 262 277 274 234 233 225 236 253 291 336 322 356 331 270 240 258 294 306 286 165 157 202 222 226 248 279 253 132 112 216 264 276
301 308 316 321 328 331 336 339 333 336 340 350 334 301 327 266 285 277 259 242 234 230 194 322 347 330 349 16 263 309 289 348 305 313 292 197 189 209 201 221 264 144 99 189 238 285 298
295 301 311 317 324 327 330 336 328 329 335 327 316 302 305 279 273 291 285 276 276 256 253 227 248 306 293 38 5 338 318 313 307 295 277 269 194 218 209 222 236 210 247 279 287 277 294